GSAT0208 (GALILEO 11) (41175 NORAD) Tracking and Keplerian Element Data

This shows tracking and keplerian element data for the satellite.

Feedback or suggestion? Click here.




ElementValue
Catalog41175
NameGSAT0208 (GALILEO 11)
Epoch Orbit5490
Epoch Day286.27899714
Epoch Year2024
RAAN118.0938
Inclination55.4766
Eccentricity0.000187
Argument of Perigee10.9937
Mean Anonmoly349.0886
Mean Motion1.70473985
Decay Rate7.2E-07
L11 41175U 15079B 24286.27899714 .00000072 00000+0 00000+0 0 9996
L22 41175 55.4766 118.0938 0001870 10.9937 349.0886 1.70473985 54908



Live tracking and technical data element details for GSAT0208 (GALILEO 11) (NORAD 41175). GSAT0208 (GALILEO 11) can be tracked NOW for your location showing map with azimuth and elevation plus other details from your city location.







IsCatalogInMostPopularTable: catalog: 41175, numindb: 599
Update: records affected: 1



GetName: 41175 GSAT0208 (GALILEO 11)

Hit Count: updated at: Tue, 03 Dec 2024 02:28:20 GMT